Погода в Княгинино

Россия / Нижегородская область     55°49′14″N   45°01′56″E
темп.,
°C
ветер,
м/с
пор.,
м/с
влажн.,
%
обл.,
%
осадки,
мм/ч
давл.,
гПа
погр.,
м
4 марта, чт
чт400:00−3з61395100 0.4 1004576
03:00−3зюз51196100 0.6 1002494
06:00−2зюз71395100 0.6 999668
09:00−1зюз101696100 1.8 996972
12:000зюз91699100 0.6 994981
15:000з9147899 2.3 9951046
18:00−3зсз5128599 0.0 997426
21:00−6зсз489199 0.0 998161
5 марта, пт
пт500:00−9сз349685 0.0 99940
03:00−12сз339484 0.0 100129
06:00−14сз23940 0.0 100320
09:00−11зсз34940 0.0 1005141
12:00−7з35930 0.0 1006274
15:00−5зюз368826 0.0 1007673
18:00−8юз349387 0.0 100742
21:00−8з489690 0.1 1009176
6 марта, сб
сб600:00−11зсз349592 0.0 101179
03:00−13зсз489677 0.0 1012138
06:00−16зсз479888 0.0 1013129
09:00−15сз469692 0.1 1015218
12:00−12зсз459028 0.0 1016419
15:00−11зсз478656 0.0 1015680
18:00−14з349493 0.0 101440
21:00−15зюз349580 0.0 101540
7 марта, вс
вс700:00−16зюз479680 0.0 101492
03:00−15юз499584 0.1 1012185
06:00−16ююз5109764 0.0 1010167
09:00−11ююз7139182 0.0 1007529
12:00−7ююз91590100 0.1 1003871
15:00−5ююз91593100 0.6 9991236
18:00−5ююз81494100 1.2 9951048
21:00−4юз71495100 2.6 994863
8 марта, пн
пн800:00−10з71677100 0.8 995558
03:00−13юз5128950 0.8 998230
06:00−13юз6178373 0.0 997368
09:00−9юз7158582 0.0 996653
12:00−6ююз6992100 0.2 996828
15:00−6з6894100 1.3 997632
18:00−9з71392100 0.3 999455
21:00−8зсз61194100 0.6 1003442